map of SDJ home
SDJ - Airport
Location
City:  Sendai, Miyagi, Japan
Near (Alt.):Natori
Name:Sendai Airport
ICAO:RJSS
IATA:SDJ

Details
Type:Airport (Aerodrome, Airfield)
Use:Public/Civil
Latitude:3808'23"N (38.139722)
Longitude:14055'01"E (140.916944)
Datum:WGS 1984
Elevation:15 ft (5 m)
Variation:8.13W (WMM2015 magnetic declination)
-0.05 annual change
Runways:2
Longest:9842 × 150 ft (3000 × 45.5 m), paved

Time
Time Zone:UTC+9
Local Time:

Weather
METAR:RJSS 210700Z 30008KT 9999 FEW050 20/06 Q1019
TAF:RJSS 210505Z 2106/2212 03007KT 9999 FEW030
BECMG 2107/2109 34004KT
BECMG 2200/2203 12007KT
BECMG 2209/2212 34004KT

Related Locations
Nearby:
Farthest:SSMT: 11610 mi / 18684 km
Mostardas, RS, BR

Find:

   beyond  
but within

Other Information
Maps:
NOTAMs:
Links:
Sources:

  
  • flag of Japan
  • flag of Miyagi
  • flag of Sendai
  

Sectional Chart

Flight Planning
at skyvector.com

Satellite Image

Google Maps Satellite view

 

Copyright © 2004-2018 Karl L. Swartz. All rights reserved.
The Great Circle Mapper name and logo are trademarks of the Great Circle Mapper.
All other trademarks mentioned herein belong to their respective owners.
Please see credits for attibutions and further copyright information.

  Follow gcmap on Facebook Follow gcmap on Twitter Follow gcmap on Google+ GCmap on LinkedIn

hCard Microformat

Geo Microformat